Time,TemperatureF,DewpointF,PressureIn,WindDirection,WindDirectionDegrees,WindSpeedMPH,WindSpeedGustMPH,Humidity,HourlyPrecipIn,Conditions,Clouds,dailyrainin,SoftwareType,DateUTC
2013-01-14 00:00:00,59.9,59.9,30.06,SSE,158,0.0,0.0,100,0.02,,---,0.02,VWS V14.00,2013-01-14 05:00:00,
2013-01-14 00:01:00,59.9,59.9,30.06,SSE,158,0.0,0.0,100,0.02,,---,0.00,VWS V14.00,2013-01-14 05:01:00,
2013-01-14 00:03:00,59.7,59.7,30.06,SSE,158,0.0,0.0,100,0.02,,---,0.00,VWS V14.00,2013-01-14 05:03:00,
2013-01-14 00:08:00,59.7,59.7,30.05,SSE,158,0.0,0.0,100,0.02,,---,0.00,VWS V14.00,2013-01-14 05:08:00,
2013-01-14 00:13:00,59.5,59.5,30.06,SE,135,0.0,0.0,100,0.02,,---,0.00,VWS V14.00,2013-01-14 05:13:00,
2013-01-14 00:18:00,59.5,59.5,30.06,SSE,158,0.0,0.0,100,0.02,,---,0.00,VWS V14.00,2013-01-14 05:18:00,
2013-01-14 00:23:00,59.5,59.5,30.06,SSE,158,0.0,0.0,100,0.04,,---,0.02,VWS V14.00,2013-01-14 05:23:00,
2013-01-14 00:28:00,59.3,59.3,30.06,SE,135,0.0,0.0,100,0.04,,---,0.02,VWS V14.00,2013-01-14 05:28:00,
2013-01-14 00:33:00,59.1,59.1,30.06,SE,135,0.0,0.0,100,0.04,,---,0.02,VWS V14.00,2013-01-14 05:33:00,
2013-01-14 00:38:00,59.0,59.0,30.07,SE,135,0.0,0.0,100,0.04,,---,0.02,VWS V14.00,2013-01-14 05:38:00,
2013-01-14 00:43:00,58.8,58.8,30.06,ENE,68,0.0,0.0,100,0.04,,---,0.02,VWS V14.00,2013-01-14 05:43:00,
2013-01-14 00:48:00,58.8,58.8,30.07,ESE,112,0.0,0.4,100,0.04,,---,0.02,VWS V14.00,2013-01-14 05:48:00,
2013-01-14 00:53:00,58.8,58.8,30.07,ESE,112,0.0,0.0,100,0.04,,---,0.02,VWS V14.00,2013-01-14 05:53:00,
2013-01-14 00:58:00,58.8,58.8,30.07,East,90,0.0,0.0,100,0.04,,---,0.02,VWS V14.00,2013-01-14 05:58:00,
2013-01-14 01:03:00,58.8,58.8,30.07,SSW,202,0.0,0.0,100,0.02,,---,0.02,VWS V14.00,2013-01-14 06:03:00,
2013-01-14 01:08:00,58.8,58.8,30.07,SSW,202,0.0,0.0,100,0.02,,---,0.02,VWS V14.00,2013-01-14 06:08:00,
2013-01-14 01:14:00,58.8,58.8,30.07,West,270,1.1,1.1,100,0.02,,---,0.02,VWS V14.00,2013-01-14 06:14:00,
2013-01-14 01:18:00,58.8,58.8,30.06,NW,315,0.0,1.1,100,0.02,,---,0.02,VWS V14.00,2013-01-14 06:18:00,
2013-01-14 01:24:00,58.8,58.8,30.06,NW,315,0.0,0.0,100,0.02,,---,0.02,VWS V14.00,2013-01-14 06:24:00,
2013-01-14 01:29:00,58.8,58.8,30.06,SE,135,0.0,1.5,100,0.02,,---,0.02,VWS V14.00,2013-01-14 06:29:00,
2013-01-14 01:34:00,58.8,58.8,30.06,SE,135,0.0,0.0,100,0.00,,---,0.02,VWS V14.00,2013-01-14 06:34:00,
2013-01-14 01:39:00,58.8,58.8,30.06,ENE,68,0.0,0.0,100,0.00,,---,0.02,VWS V14.00,2013-01-14 06:39:00,
2013-01-14 01:44:00,58.8,58.8,30.06,East,90,0.0,0.0,100,0.02,,---,0.04,VWS V14.00,2013-01-14 06:44:00,
2013-01-14 01:49:00,58.8,58.8,30.06,ENE,68,0.0,0.0,100,0.02,,---,0.04,VWS V14.00,2013-01-14 06:49:00,
2013-01-14 01:54:00,58.8,58.8,30.06,ENE,68,0.0,0.0,100,0.02,,---,0.04,VWS V14.00,2013-01-14 06:54:00,
2013-01-14 01:59:00,58.8,58.8,30.06,SE,135,0.0,0.0,100,0.04,,---,0.06,VWS V14.00,2013-01-14 06:59:00,
2013-01-14 02:04:00,58.8,58.8,30.06,ENE,68,0.0,0.0,100,0.04,,---,0.06,VWS V14.00,2013-01-14 07:04:00,
2013-01-14 02:09:00,58.8,58.8,30.06,ENE,68,0.0,0.0,100,0.06,,---,0.08,VWS V14.00,2013-01-14 07:09:00,
2013-01-14 02:14:00,58.8,58.8,30.06,ENE,68,0.0,0.0,100,0.06,,---,0.08,VWS V14.00,2013-01-14 07:14:00,
2013-01-14 02:19:00,58.8,58.8,30.07,ENE,68,0.0,0.0,100,0.06,,---,0.08,VWS V14.00,2013-01-14 07:19:00,
2013-01-14 02:24:00,58.8,58.8,30.07,ENE,68,0.0,0.0,100,0.06,,---,0.08,VWS V14.00,2013-01-14 07:24:00,
2013-01-14 02:29:00,58.6,58.6,30.07,South,180,1.3,1.3,100,0.06,,---,0.08,VWS V14.00,2013-01-14 07:29:00,
2013-01-14 02:34:00,58.6,58.6,30.07,SSE,158,0.0,1.3,100,0.08,,---,0.10,VWS V14.00,2013-01-14 07:34:00,
2013-01-14 02:39:00,58.6,58.6,30.06,SE,135,0.0,1.3,100,0.08,,---,0.10,VWS V14.00,2013-01-14 07:39:00,
2013-01-14 02:44:00,58.4,58.4,30.07,SE,135,0.0,0.0,100,0.08,,---,0.12,VWS V14.00,2013-01-14 07:44:00,
2013-01-14 02:49:00,58.4,58.4,30.06,SE,135,0.0,0.0,100,0.10,,---,0.15,VWS V14.00,2013-01-14 07:49:00,
2013-01-14 02:54:00,58.2,58.2,30.06,SE,135,0.0,0.0,100,0.10,,---,0.15,VWS V14.00,2013-01-14 07:54:00,
2013-01-14 02:59:00,58.2,58.2,30.06,SE,135,0.0,0.0,100,0.10,,---,0.15,VWS V14.00,2013-01-14 07:59:00,
2013-01-14 03:04:00,58.2,58.2,30.06,SE,135,0.0,0.0,100,0.08,,---,0.15,VWS V14.00,2013-01-14 08:04:00,
2013-01-14 03:09:00,58.2,58.2,30.06,SE,135,0.0,0.0,100,0.08,,---,0.15,VWS V14.00,2013-01-14 08:09:00,
2013-01-14 03:14:00,58.1,58.1,30.06,SE,135,0.0,0.0,100,0.06,,---,0.15,VWS V14.00,2013-01-14 08:14:00,
2013-01-14 03:19:00,58.1,58.1,30.06,SE,135,0.0,0.0,100,0.06,,---,0.15,VWS V14.00,2013-01-14 08:19:00,
2013-01-14 03:24:00,57.9,57.9,30.06,SE,135,0.0,0.0,100,0.06,,---,0.15,VWS V14.00,2013-01-14 08:24:00,
2013-01-14 03:29:00,57.9,57.9,30.05,SE,135,0.0,0.0,100,0.06,,---,0.15,VWS V14.00,2013-01-14 08:29:00,
2013-01-14 03:34:00,57.9,57.9,30.05,SE,135,0.0,0.0,100,0.06,,---,0.15,VWS V14.00,2013-01-14 08:34:00,
2013-01-14 03:39:00,57.9,57.9,30.05,SE,135,0.0,0.0,100,0.06,,---,0.15,VWS V14.00,2013-01-14 08:39:00,
2013-01-14 03:45:00,57.9,57.9,30.05,SE,135,0.0,0.0,100,0.02,,---,0.15,VWS V14.00,2013-01-14 08:45:00,
2013-01-14 03:50:00,57.9,57.9,30.04,SE,135,0.0,0.0,100,0.02,,---,0.15,VWS V14.00,2013-01-14 08:50:00,
2013-01-14 03:55:00,57.7,57.7,30.04,SE,135,0.0,0.0,100,0.00,,---,0.15,VWS V14.00,2013-01-14 08:55:00,
2013-01-14 04:00:00,57.7,57.7,30.04,SE,135,0.0,0.0,100,0.00,,---,0.15,VWS V14.00,2013-01-14 09:00:00,
2013-01-14 04:05:00,57.7,57.7,30.04,SE,135,0.0,0.0,100,0.00,,---,0.15,VWS V14.00,2013-01-14 09:05:00,
2013-01-14 04:10:00,57.7,57.7,30.04,SE,135,0.0,0.0,100,0.00,,---,0.15,VWS V14.00,2013-01-14 09:10:00,
2013-01-14 04:15:00,57.7,57.7,30.04,SE,135,0.0,0.0,100,0.00,,---,0.15,VWS V14.00,2013-01-14 09:15:00,
2013-01-14 04:20:00,57.7,57.7,30.04,South,180,0.0,0.0,100,0.00,,---,0.15,VWS V14.00,2013-01-14 09:20:00,
2013-01-14 04:25:00,57.7,57.7,30.04,West,270,0.0,0.0,100,0.00,,---,0.15,VWS V14.00,2013-01-14 09:25:00,
2013-01-14 04:30:00,57.7,57.7,30.04,West,270,0.0,0.0,100,0.00,,---,0.15,VWS V14.00,2013-01-14 09:30:00,
2013-01-14 04:35:00,57.7,57.7,30.03,West,270,0.0,0.0,100,0.00,,---,0.15,VWS V14.00,2013-01-14 09:35:00,
2013-01-14 04:40:00,57.7,57.7,30.03,NNW,338,0.0,0.0,100,0.00,,---,0.15,VWS V14.00,2013-01-14 09:40:00,
2013-01-14 04:45:00,57.9,57.9,30.03,NE,45,0.0,0.6,100,0.00,,---,0.15,VWS V14.00,2013-01-14 09:45:00,
2013-01-14 04:50:00,57.9,57.9,30.03,WSW,248,0.0,0.8,100,0.00,,---,0.15,VWS V14.00,2013-01-14 09:50:00,
2013-01-14 04:55:00,58.1,58.1,30.03,SSE,158,0.0,0.0,100,0.00,,---,0.15,VWS V14.00,2013-01-14 09:55:00,
2013-01-14 05:00:00,58.4,58.4,30.03,SSW,202,0.0,0.0,100,0.00,,---,0.15,VWS V14.00,2013-01-14 10:00:00,
2013-01-14 05:05:00,58.4,58.4,30.03,SSW,202,0.0,0.0,100,0.00,,---,0.15,VWS V14.00,2013-01-14 10:05:00,
2013-01-14 05:10:00,58.4,58.4,30.03,SSW,202,0.0,0.0,100,0.00,,---,0.15,VWS V14.00,2013-01-14 10:10:00,
2013-01-14 05:15:00,58.2,58.2,30.03,SSW,202,0.0,0.0,100,0.00,,---,0.15,VWS V14.00,2013-01-14 10:15:00,
2013-01-14 05:20:00,58.2,58.2,30.03,SSW,202,0.0,0.0,100,0.00,,---,0.15,VWS V14.00,2013-01-14 10:20:00,
2013-01-14 05:25:00,58.1,58.1,30.03,SSW,202,0.0,0.0,100,0.00,,---,0.15,VWS V14.00,2013-01-14 10:25:00,
2013-01-14 05:30:00,58.1,58.1,30.03,SSW,202,0.0,0.0,100,0.00,,---,0.15,VWS V14.00,2013-01-14 10:30:00,
2013-01-14 05:35:00,57.9,57.9,30.03,SSW,202,0.0,0.0,100,0.00,,---,0.15,VWS V14.00,2013-01-14 10:35:00,
2013-01-14 05:40:00,57.9,57.9,30.03,SSW,202,0.0,0.0,100,0.00,,---,0.15,VWS V14.00,2013-01-14 10:40:00,
2013-01-14 05:45:00,57.9,57.9,30.03,SSW,202,0.0,0.0,100,0.00,,---,0.15,VWS V14.00,2013-01-14 10:45:00,
2013-01-14 05:50:00,57.9,57.9,30.03,SSW,202,0.0,0.0,100,0.00,,---,0.15,VWS V14.00,2013-01-14 10:50:00,
2013-01-14 05:55:00,57.7,57.7,30.03,SSW,202,0.0,0.0,100,0.00,,---,0.15,VWS V14.00,2013-01-14 10:55:00,
2013-01-14 06:00:00,57.7,57.7,30.03,SSW,202,0.0,0.0,100,0.00,,---,0.15,VWS V14.00,2013-01-14 11:00:00,
2013-01-14 06:05:00,57.7,57.7,30.03,SSW,202,0.0,0.0,100,0.00,,---,0.15,VWS V14.00,2013-01-14 11:05:00,
2013-01-14 06:10:00,57.5,57.5,30.03,SSW,202,0.0,0.0,100,0.00,,---,0.15,VWS V14.00,2013-01-14 11:10:00,
2013-01-14 06:15:00,57.5,57.5,30.03,SSW,202,0.0,0.0,100,0.00,,---,0.15,VWS V14.00,2013-01-14 11:15:00,
2013-01-14 06:20:00,57.5,57.5,30.03,SSW,202,0.0,0.0,100,0.00,,---,0.15,VWS V14.00,2013-01-14 11:20:00,
2013-01-14 06:25:00,57.5,57.5,30.03,West,270,0.0,0.0,100,0.00,,---,0.15,VWS V14.00,2013-01-14 11:25:00,
2013-01-14 06:30:00,57.5,57.5,30.04,SE,135,0.0,0.0,100,0.00,,---,0.15,VWS V14.00,2013-01-14 11:30:00,
2013-01-14 06:35:00,57.7,57.7,30.04,SE,135,0.0,0.0,100,0.00,,---,0.15,VWS V14.00,2013-01-14 11:35:00,
2013-01-14 06:40:00,57.7,57.7,30.05,SE,135,0.0,0.0,100,0.00,,---,0.15,VWS V14.00,2013-01-14 11:40:00,
2013-01-14 06:45:00,57.7,57.7,30.05,SE,135,0.0,0.0,100,0.00,,---,0.15,VWS V14.00,2013-01-14 11:45:00,
2013-01-14 06:50:00,57.5,57.5,30.04,SE,135,0.0,0.0,100,0.00,,---,0.15,VWS V14.00,2013-01-14 11:50:00,
2013-01-14 06:55:00,57.5,57.5,30.04,SE,135,0.0,0.0,100,0.00,,---,0.15,VWS V14.00,2013-01-14 11:55:00,
2013-01-14 07:00:00,57.5,57.5,30.04,SE,135,0.0,0.0,100,0.00,,---,0.15,VWS V14.00,2013-01-14 12:00:00,
2013-01-14 07:05:00,57.5,57.5,30.05,SE,135,0.0,0.0,100,0.00,,---,0.15,VWS V14.00,2013-01-14 12:05:00,
2013-01-14 07:10:00,57.5,57.5,30.04,SE,135,0.0,0.0,100,0.00,,---,0.15,VWS V14.00,2013-01-14 12:10:00,
2013-01-14 07:15:00,57.5,57.5,30.04,SE,135,0.0,0.0,100,0.00,,---,0.15,VWS V14.00,2013-01-14 12:15:00,
2013-01-14 07:20:00,57.5,57.5,30.05,SE,135,0.0,0.0,100,0.00,,---,0.15,VWS V14.00,2013-01-14 12:20:00,
2013-01-14 07:25:00,57.5,57.5,30.04,SE,135,0.0,0.0,100,0.00,,---,0.15,VWS V14.00,2013-01-14 12:25:00,
2013-01-14 07:30:00,57.5,57.5,30.05,SE,135,0.0,0.0,100,0.00,,---,0.15,VWS V14.00,2013-01-14 12:30:00,
2013-01-14 07:35:00,57.5,57.5,30.05,SE,135,0.0,0.0,100,0.02,,---,0.17,VWS V14.00,2013-01-14 12:35:00,
2013-01-14 07:40:00,57.3,57.3,30.05,SE,135,0.0,0.0,100,0.02,,---,0.17,VWS V14.00,2013-01-14 12:40:00,
2013-01-14 07:45:00,57.3,57.3,30.06,SE,135,0.0,0.0,100,0.02,,---,0.17,VWS V14.00,2013-01-14 12:45:00,
2013-01-14 07:50:00,57.5,57.5,30.06,SE,135,0.0,0.0,100,0.02,,---,0.17,VWS V14.00,2013-01-14 12:50:00,
2013-01-14 07:55:00,57.3,57.3,30.06,SE,135,0.0,0.0,100,0.02,,---,0.17,VWS V14.00,2013-01-14 12:55:00,
2013-01-14 08:00:00,57.5,57.5,30.06,SE,135,0.0,0.0,100,0.02,,---,0.17,VWS V14.00,2013-01-14 13:00:00,
2013-01-14 08:05:00,57.5,57.5,30.06,SE,135,0.0,0.0,100,0.02,,---,0.17,VWS V14.00,2013-01-14 13:05:00,
2013-01-14 08:10:00,57.7,57.7,30.06,SE,135,0.0,0.0,100,0.02,,---,0.17,VWS V14.00,2013-01-14 13:10:00,
2013-01-14 08:15:00,57.7,57.7,30.06,SE,135,0.0,0.0,100,0.02,,---,0.17,VWS V14.00,2013-01-14 13:15:00,
2013-01-14 08:20:00,57.9,57.9,30.06,SE,135,0.0,0.0,100,0.02,,---,0.17,VWS V14.00,2013-01-14 13:20:00,
2013-01-14 08:25:00,57.9,57.9,30.06,SE,135,0.0,0.0,100,0.02,,---,0.17,VWS V14.00,2013-01-14 13:25:00,
2013-01-14 08:30:00,57.9,57.9,30.06,SE,135,0.0,0.0,100,0.02,,---,0.17,VWS V14.00,2013-01-14 13:30:00,
2013-01-14 08:35:00,58.1,58.1,30.07,SE,135,0.0,0.0,100,0.02,,---,0.17,VWS V14.00,2013-01-14 13:35:00,
2013-01-14 08:40:00,58.1,58.1,30.07,SE,135,0.0,0.0,100,0.00,,---,0.17,VWS V14.00,2013-01-14 13:40:00,
2013-01-14 08:45:00,58.1,58.1,30.07,SE,135,0.0,0.0,100,0.00,,---,0.17,VWS V14.00,2013-01-14 13:45:00,
2013-01-14 08:50:00,58.2,58.2,30.08,SE,135,0.0,0.0,100,0.00,,---,0.17,VWS V14.00,2013-01-14 13:50:00,
2013-01-14 08:55:00,58.2,58.2,30.08,SE,135,0.0,0.0,100,0.00,,---,0.17,VWS V14.00,2013-01-14 13:55:00,
2013-01-14 09:00:00,58.2,58.2,30.08,SE,135,0.0,0.0,100,0.00,,---,0.17,VWS V14.00,2013-01-14 14:00:00,
2013-01-14 09:05:00,58.4,58.4,30.08,SE,135,0.0,0.0,100,0.02,,---,0.19,VWS V14.00,2013-01-14 14:05:00,
2013-01-14 09:10:00,58.4,58.4,30.08,SE,135,0.0,0.0,100,0.02,,---,0.19,VWS V14.00,2013-01-14 14:10:00,
2013-01-14 09:15:00,58.6,58.6,30.08,SE,135,0.0,0.0,100,0.04,,---,0.20,VWS V14.00,2013-01-14 14:15:00,
2013-01-14 09:20:00,58.6,58.6,30.08,SE,135,0.0,0.0,100,0.04,,---,0.20,VWS V14.00,2013-01-14 14:20:00,
2013-01-14 09:26:00,58.6,58.6,30.08,ENE,68,0.0,0.0,100,0.06,,---,0.22,VWS V14.00,2013-01-14 14:26:00,
2013-01-14 09:31:00,58.8,58.8,30.08,SE,135,0.0,0.0,100,0.06,,---,0.22,VWS V14.00,2013-01-14 14:31:00,
2013-01-14 09:36:00,58.8,58.8,30.08,NW,315,0.0,0.6,100,0.08,,---,0.25,VWS V14.00,2013-01-14 14:36:00,
2013-01-14 09:41:00,58.8,58.8,30.08,NW,315,0.0,0.0,100,0.12,,---,0.29,VWS V14.00,2013-01-14 14:41:00,
2013-01-14 09:46:00,58.8,58.8,30.08,NW,315,0.0,0.0,100,0.12,,---,0.29,VWS V14.00,2013-01-14 14:46:00,
2013-01-14 09:51:00,58.8,58.8,30.08,NW,315,0.0,0.0,100,0.14,,---,0.31,VWS V14.00,2013-01-14 14:51:00,
2013-01-14 09:56:00,58.8,58.8,30.09,NW,315,0.0,0.0,100,0.14,,---,0.31,VWS V14.00,2013-01-14 14:56:00,
2013-01-14 10:01:00,58.8,58.8,30.09,NW,315,0.0,0.0,100,0.16,,---,0.33,VWS V14.00,2013-01-14 15:01:00,
2013-01-14 10:06:00,59.1,59.1,30.09,NW,315,0.0,0.0,100,0.18,,---,0.35,VWS V14.00,2013-01-14 15:06:00,
2013-01-14 10:11:00,59.3,59.3,30.08,NW,315,0.0,0.0,100,0.16,,---,0.35,VWS V14.00,2013-01-14 15:11:00,
2013-01-14 10:16:00,59.5,59.5,30.08,NW,315,0.0,0.0,100,0.16,,---,0.35,VWS V14.00,2013-01-14 15:16:00,
2013-01-14 10:21:00,59.5,59.5,30.08,NW,315,0.0,0.0,100,0.14,,---,0.35,VWS V14.00,2013-01-14 15:21:00,
2013-01-14 10:26:00,59.7,59.7,30.08,NW,315,0.0,0.0,100,0.14,,---,0.35,VWS V14.00,2013-01-14 15:26:00,
2013-01-14 10:31:00,59.7,59.7,30.08,NW,315,0.0,0.0,100,0.12,,---,0.35,VWS V14.00,2013-01-14 15:31:00,
2013-01-14 10:36:00,59.9,59.9,30.08,NW,315,0.0,0.0,100,0.12,,---,0.35,VWS V14.00,2013-01-14 15:36:00,
2013-01-14 10:41:00,60.0,60.0,30.08,NW,315,0.0,0.0,100,0.06,,---,0.35,VWS V14.00,2013-01-14 15:41:00,
2013-01-14 10:46:00,60.0,60.0,30.08,NW,315,0.0,0.0,100,0.06,,---,0.35,VWS V14.00,2013-01-14 15:46:00,
2013-01-14 10:51:00,60.0,60.0,30.08,NW,315,0.0,0.0,100,0.04,,---,0.35,VWS V14.00,2013-01-14 15:51:00,
2013-01-14 10:56:00,60.2,60.2,30.08,NW,315,0.0,0.0,100,0.04,,---,0.35,VWS V14.00,2013-01-14 15:56:00,
2013-01-14 11:01:00,60.2,60.2,30.08,NW,315,0.0,0.0,100,0.02,,---,0.35,VWS V14.00,2013-01-14 16:01:00,
2013-01-14 11:06:00,60.4,60.4,30.08,NW,315,0.0,0.0,100,0.04,,---,0.37,VWS V14.00,2013-01-14 16:06:00,
2013-01-14 11:11:00,60.4,60.4,30.08,NW,315,0.0,0.0,100,0.02,,---,0.37,VWS V14.00,2013-01-14 16:11:00,
2013-01-14 11:16:00,60.4,60.4,30.07,NW,315,0.0,0.0,100,0.02,,---,0.37,VWS V14.00,2013-01-14 16:16:00,
2013-01-14 11:21:00,60.6,60.6,30.07,NW,315,0.0,0.0,100,0.02,,---,0.37,VWS V14.00,2013-01-14 16:21:00,
2013-01-14 11:26:00,60.6,60.6,30.07,NW,315,0.0,0.0,100,0.02,,---,0.37,VWS V14.00,2013-01-14 16:26:00,
2013-01-14 11:31:00,60.9,60.9,30.07,NW,315,0.0,0.0,100,0.02,,---,0.37,VWS V14.00,2013-01-14 16:31:00,
2013-01-14 11:36:00,61.1,61.1,30.07,NW,315,0.0,0.0,100,0.02,,---,0.37,VWS V14.00,2013-01-14 16:36:00,
2013-01-14 11:41:00,61.1,61.1,30.07,NW,315,0.0,0.0,100,0.02,,---,0.37,VWS V14.00,2013-01-14 16:41:00,
2013-01-14 11:46:00,61.3,61.3,30.06,NE,45,0.0,0.0,100,0.02,,---,0.37,VWS V14.00,2013-01-14 16:46:00,
2013-01-14 11:51:00,61.3,61.3,30.06,NE,45,0.0,0.0,100,0.02,,---,0.37,VWS V14.00,2013-01-14 16:51:00,
2013-01-14 11:56:00,61.5,61.5,30.05,NE,45,0.0,0.0,100,0.02,,---,0.37,VWS V14.00,2013-01-14 16:56:00,
2013-01-14 12:01:00,61.5,61.5,30.05,East,90,0.0,0.0,100,0.02,,---,0.37,VWS V14.00,2013-01-14 17:01:00,
2013-01-14 12:06:00,61.5,61.5,30.05,ENE,68,0.0,0.0,100,0.02,,---,0.37,VWS V14.00,2013-01-14 17:06:00,
2013-01-14 12:11:00,61.5,61.5,30.04,ENE,68,0.0,0.0,100,0.00,,---,0.37,VWS V14.00,2013-01-14 17:11:00,
2013-01-14 12:16:00,61.7,61.7,30.05,SSE,158,0.0,0.6,100,0.00,,---,0.37,VWS V14.00,2013-01-14 17:16:00,
2013-01-14 12:21:00,61.8,61.8,30.05,SSE,158,0.0,0.0,100,0.00,,---,0.37,VWS V14.00,2013-01-14 17:21:00,
2013-01-14 12:26:00,62.0,62.0,30.05,ENE,68,0.0,0.0,100,0.00,,---,0.37,VWS V14.00,2013-01-14 17:26:00,
2013-01-14 12:31:00,62.4,62.4,30.04,ENE,68,0.0,0.0,100,0.00,,---,0.37,VWS V14.00,2013-01-14 17:31:00,
2013-01-14 12:36:00,62.2,62.2,30.04,ENE,68,0.0,0.0,100,0.00,,---,0.37,VWS V14.00,2013-01-14 17:36:00,
2013-01-14 12:41:00,61.7,61.7,30.04,ENE,68,0.6,0.6,100,0.00,,---,0.37,VWS V14.00,2013-01-14 17:41:00,
2013-01-14 12:46:00,61.1,61.1,30.04,West,270,0.8,0.8,100,0.00,,---,0.37,VWS V14.00,2013-01-14 17:46:00,
2013-01-14 12:51:00,60.9,60.9,30.04,West,270,2.2,2.2,100,0.00,,---,0.37,VWS V14.00,2013-01-14 17:51:00,
2013-01-14 12:56:00,60.6,60.6,30.04,West,270,0.0,2.2,100,0.00,,---,0.37,VWS V14.00,2013-01-14 17:56:00,
2013-01-14 13:01:00,60.2,60.2,30.04,West,270,0.0,2.0,100,0.00,,---,0.37,VWS V14.00,2013-01-14 18:01:00,
2013-01-14 13:07:00,59.9,59.9,30.04,West,270,0.0,2.0,100,0.02,,---,0.39,VWS V14.00,2013-01-14 18:07:00,
2013-01-14 13:12:00,59.7,59.7,30.03,WSW,248,0.0,0.0,100,0.02,,---,0.39,VWS V14.00,2013-01-14 18:12:00,
2013-01-14 13:17:00,59.5,59.5,30.03,WSW,248,2.2,2.2,100,0.02,,---,0.39,VWS V14.00,2013-01-14 18:17:00,
2013-01-14 13:22:00,59.1,59.1,30.03,West,270,0.0,0.0,100,0.02,,---,0.39,VWS V14.00,2013-01-14 18:22:00,
2013-01-14 13:27:00,58.8,58.8,30.03,West,270,0.0,0.0,100,0.02,,---,0.39,VWS V14.00,2013-01-14 18:27:00,
2013-01-14 13:32:00,59.1,59.1,30.03,WSW,248,0.0,0.0,100,0.04,,---,0.41,VWS V14.00,2013-01-14 18:32:00,
2013-01-14 13:37:00,59.1,59.1,30.03,WSW,248,1.3,1.3,100,0.04,,---,0.41,VWS V14.00,2013-01-14 18:37:00,
2013-01-14 13:42:00,58.8,58.8,30.03,WSW,248,0.0,0.0,100,0.04,,---,0.41,VWS V14.00,2013-01-14 18:42:00,
2013-01-14 13:47:00,58.8,58.8,30.03,WSW,248,0.0,0.0,100,0.04,,---,0.41,VWS V14.00,2013-01-14 18:47:00,
2013-01-14 13:52:00,58.8,58.8,30.03,ENE,68,0.0,0.0,100,0.06,,---,0.43,VWS V14.00,2013-01-14 18:52:00,
2013-01-14 13:57:00,58.8,58.8,30.04,ENE,68,0.0,0.0,100,0.06,,---,0.43,VWS V14.00,2013-01-14 18:57:00,
2013-01-14 14:02:00,58.8,58.8,30.03,WSW,248,0.6,0.6,100,0.06,,---,0.43,VWS V14.00,2013-01-14 19:02:00,
2013-01-14 14:07:00,58.8,58.8,30.03,WSW,248,0.0,0.6,100,0.06,,---,0.43,VWS V14.00,2013-01-14 19:07:00,
2013-01-14 14:12:00,58.6,58.6,30.04,WSW,248,0.0,0.0,100,0.04,,---,0.43,VWS V14.00,2013-01-14 19:12:00,
2013-01-14 14:17:00,58.2,58.2,30.03,WSW,248,0.0,0.0,100,0.06,,---,0.45,VWS V14.00,2013-01-14 19:17:00,
2013-01-14 14:23:00,58.1,58.1,30.04,WSW,248,0.0,0.0,100,0.06,,---,0.45,VWS V14.00,2013-01-14 19:23:00,
2013-01-14 14:28:00,57.9,57.9,30.03,West,270,0.0,0.0,100,0.06,,---,0.45,VWS V14.00,2013-01-14 19:28:00,
2013-01-14 14:33:00,57.7,57.7,30.04,West,270,0.0,1.5,100,0.08,,---,0.47,VWS V14.00,2013-01-14 19:33:00,
2013-01-14 14:38:00,57.7,57.7,30.05,NE,45,0.0,1.5,100,0.08,,---,0.47,VWS V14.00,2013-01-14 19:38:00,
2013-01-14 14:43:00,57.7,57.7,30.04,ENE,68,0.0,0.0,100,0.06,,---,0.47,VWS V14.00,2013-01-14 19:43:00,
2013-01-14 14:48:00,57.7,57.7,30.05,East,90,0.0,4.2,100,0.06,,---,0.47,VWS V14.00,2013-01-14 19:48:00,
2013-01-14 14:53:00,57.7,57.7,30.05,ENE,68,0.0,0.0,100,0.06,,---,0.49,VWS V14.00,2013-01-14 19:53:00,
2013-01-14 14:59:00,57.7,57.7,30.05,ENE,68,0.0,0.0,100,0.06,,---,0.49,VWS V14.00,2013-01-14 19:59:00,
2013-01-14 15:04:00,57.5,57.5,30.05,ENE,68,0.0,0.0,100,0.06,,---,0.49,VWS V14.00,2013-01-14 20:04:00,
2013-01-14 15:09:00,57.5,57.5,30.04,ENE,68,0.0,0.0,100,0.08,,---,0.51,VWS V14.00,2013-01-14 20:09:00,
2013-01-14 15:13:00,57.7,57.7,30.04,ENE,68,0.6,0.6,100,0.08,,---,0.51,VWS V14.00,2013-01-14 20:13:00,
2013-01-14 15:19:00,57.5,57.5,30.05,ENE,68,0.0,0.6,100,0.10,,---,0.53,VWS V14.00,2013-01-14 20:19:00,
2013-01-14 15:24:00,57.5,57.5,30.05,ENE,68,0.0,0.0,100,0.08,,---,0.53,VWS V14.00,2013-01-14 20:24:00,
2013-01-14 15:29:00,57.5,57.5,30.04,ENE,68,0.0,0.0,100,0.08,,---,0.53,VWS V14.00,2013-01-14 20:29:00,
2013-01-14 15:34:00,57.7,57.7,30.05,SSE,158,0.0,1.5,100,0.08,,---,0.53,VWS V14.00,2013-01-14 20:34:00,
2013-01-14 15:39:00,57.7,57.7,30.05,WNW,292,0.0,1.5,100,0.08,,---,0.53,VWS V14.00,2013-01-14 20:39:00,
2013-01-14 15:44:00,57.7,57.7,30.05,WSW,248,0.0,0.0,100,0.06,,---,0.53,VWS V14.00,2013-01-14 20:44:00,
2013-01-14 15:49:00,58.2,58.2,30.05,WSW,248,0.0,0.6,100,0.06,,---,0.53,VWS V14.00,2013-01-14 20:49:00,
2013-01-14 15:54:00,58.8,58.8,30.05,WSW,248,0.0,0.0,100,0.06,,---,0.53,VWS V14.00,2013-01-14 20:54:00,
2013-01-14 15:59:00,58.8,58.8,30.05,WSW,248,0.0,0.0,100,0.06,,---,0.53,VWS V14.00,2013-01-14 20:59:00,
2013-01-14 16:04:00,60.0,60.0,30.05,West,270,0.0,2.2,100,0.04,,---,0.53,VWS V14.00,2013-01-14 21:04:00,
2013-01-14 16:09:00,60.4,60.4,30.06,SSW,202,0.6,2.2,100,0.04,,---,0.53,VWS V14.00,2013-01-14 21:09:00,
2013-01-14 16:14:00,60.6,60.6,30.05,SSE,158,0.0,0.0,100,0.02,,---,0.53,VWS V14.00,2013-01-14 21:14:00,
2013-01-14 16:19:00,61.1,61.1,30.06,WSW,248,1.5,1.5,100,0.02,,---,0.53,VWS V14.00,2013-01-14 21:19:00,
2013-01-14 16:24:00,61.1,61.1,30.06,WSW,248,0.0,1.3,100,0.00,,---,0.53,VWS V14.00,2013-01-14 21:24:00,
2013-01-14 16:29:00,61.3,61.3,30.06,WSW,248,0.0,3.3,100,0.00,,---,0.53,VWS V14.00,2013-01-14 21:29:00,
2013-01-14 16:34:00,61.3,61.3,30.06,WSW,248,0.0,0.0,100,0.00,,---,0.53,VWS V14.00,2013-01-14 21:34:00,
2013-01-14 16:39:00,61.3,61.3,30.06,West,270,0.6,4.4,100,0.00,,---,0.53,VWS V14.00,2013-01-14 21:39:00,
2013-01-14 16:44:00,61.3,61.3,30.06,West,270,0.0,3.1,100,0.02,,---,0.55,VWS V14.00,2013-01-14 21:44:00,
2013-01-14 16:49:00,61.3,61.3,30.07,South,180,0.0,3.1,100,0.02,,---,0.55,VWS V14.00,2013-01-14 21:49:00,
2013-01-14 16:54:00,61.1,61.1,30.07,West,270,0.0,1.7,100,0.02,,---,0.55,VWS V14.00,2013-01-14 21:54:00,
2013-01-14 16:59:00,60.9,60.9,30.07,SW,225,2.6,2.6,100,0.02,,---,0.55,VWS V14.00,2013-01-14 21:59:00,
2013-01-14 17:04:00,60.9,60.9,30.06,SE,135,0.0,2.6,100,0.02,,---,0.55,VWS V14.00,2013-01-14 22:04:00,
2013-01-14 17:09:00,61.1,61.1,30.07,WNW,292,1.3,2.6,100,0.02,,---,0.55,VWS V14.00,2013-01-14 22:09:00,
2013-01-14 17:14:00,61.1,61.1,30.07,West,270,2.0,2.0,100,0.02,,---,0.55,VWS V14.00,2013-01-14 22:14:00,
2013-01-14 17:19:00,61.1,61.1,30.07,WSW,248,0.0,2.0,100,0.02,,---,0.55,VWS V14.00,2013-01-14 22:19:00,
2013-01-14 17:24:00,61.1,61.1,30.07,WSW,248,0.0,0.0,100,0.02,,---,0.55,VWS V14.00,2013-01-14 22:24:00,
2013-01-14 17:29:00,61.1,61.1,30.07,SSW,202,0.6,2.6,100,0.02,,---,0.55,VWS V14.00,2013-01-14 22:29:00,
2013-01-14 17:34:00,61.1,61.1,30.07,SW,225,2.2,2.2,100,0.02,,---,0.55,VWS V14.00,2013-01-14 22:34:00,
2013-01-14 17:39:00,60.9,60.9,30.07,West,270,0.0,2.2,100,0.02,,---,0.55,VWS V14.00,2013-01-14 22:39:00,
2013-01-14 17:44:00,60.9,60.9,30.07,SSE,158,6.7,6.7,100,0.00,,---,0.55,VWS V14.00,2013-01-14 22:44:00,
2013-01-14 17:49:00,60.9,60.9,30.08,SW,225,0.0,6.7,100,0.00,,---,0.55,VWS V14.00,2013-01-14 22:49:00,
2013-01-14 17:54:00,60.9,60.9,30.08,WSW,248,0.6,2.2,100,0.00,,---,0.55,VWS V14.00,2013-01-14 22:54:00,
2013-01-14 17:59:00,60.9,60.9,30.08,NE,45,0.0,2.2,100,0.00,,---,0.55,VWS V14.00,2013-01-14 22:59:00,
2013-01-14 18:04:00,60.9,60.9,30.08,NE,45,0.6,0.6,100,0.00,,---,0.55,VWS V14.00,2013-01-14 23:04:00,
2013-01-14 18:09:00,60.8,60.8,30.08,NW,315,0.0,3.3,100,0.00,,---,0.55,VWS V14.00,2013-01-14 23:09:00,
2013-01-14 18:14:00,60.8,60.8,30.08,NW,315,0.0,0.0,100,0.00,,---,0.55,VWS V14.00,2013-01-14 23:14:00,
2013-01-14 18:19:00,60.8,60.8,30.08,SW,225,0.0,0.0,100,0.00,,---,0.55,VWS V14.00,2013-01-14 23:19:00,
2013-01-14 18:24:00,60.6,60.6,30.08,SW,225,0.0,3.1,100,0.00,,---,0.55,VWS V14.00,2013-01-14 23:24:00,
2013-01-14 18:29:00,60.6,60.6,30.08,West,270,5.8,7.3,100,0.00,,---,0.55,VWS V14.00,2013-01-14 23:29:00,
2013-01-14 18:34:00,60.8,60.8,30.08,WNW,292,0.0,5.8,100,0.00,,---,0.55,VWS V14.00,2013-01-14 23:34:00,
2013-01-14 18:39:00,60.9,60.9,30.08,West,270,3.3,5.8,100,0.00,,---,0.55,VWS V14.00,2013-01-14 23:39:00,
2013-01-14 18:44:00,60.9,60.9,30.08,West,270,0.4,3.3,100,0.00,,---,0.55,VWS V14.00,2013-01-14 23:44:00,
2013-01-14 18:49:00,60.9,60.9,30.08,West,270,0.8,3.3,100,0.02,,---,0.57,VWS V14.00,2013-01-14 23:49:00,
2013-01-14 18:54:00,60.9,60.9,30.09,West,270,0.0,2.6,100,0.02,,---,0.57,VWS V14.00,2013-01-14 23:54:00,
2013-01-14 18:59:00,60.8,60.8,30.08,WSW,248,0.0,2.6,100,0.06,,---,0.61,VWS V14.00,2013-01-14 23:59:00,
2013-01-14 19:04:00,60.6,60.6,30.08,WNW,292,1.7,1.7,100,0.06,,---,0.61,VWS V14.00,2013-01-15 00:04:00,
2013-01-14 19:09:00,60.6,60.6,30.08,West,270,0.0,1.7,100,0.08,,---,0.63,VWS V14.00,2013-01-15 00:09:00,
2013-01-14 19:14:00,60.6,60.6,30.08,West,270,0.0,0.0,100,0.08,,---,0.63,VWS V14.00,2013-01-15 00:14:00,
2013-01-14 19:19:00,60.4,60.4,30.08,West,270,0.0,0.0,100,0.08,,---,0.63,VWS V14.00,2013-01-15 00:19:00,
2013-01-14 19:24:00,60.2,60.2,30.08,West,270,0.0,0.0,100,0.08,,---,0.63,VWS V14.00,2013-01-15 00:24:00,
2013-01-14 19:29:00,60.0,60.0,30.08,West,270,0.0,0.0,100,0.08,,---,0.63,VWS V14.00,2013-01-15 00:29:00,
2013-01-14 19:34:00,60.0,60.0,30.09,West,270,0.0,0.0,100,0.08,,---,0.63,VWS V14.00,2013-01-15 00:34:00,
2013-01-14 19:39:00,59.9,59.9,30.09,West,270,4.4,4.4,100,0.08,,---,0.63,VWS V14.00,2013-01-15 00:39:00,
2013-01-14 19:44:00,59.5,59.5,30.09,West,270,0.8,4.4,100,0.08,,---,0.63,VWS V14.00,2013-01-15 00:44:00,
2013-01-14 19:49:00,58.8,58.8,30.10,West,270,0.8,4.4,100,0.08,,---,0.63,VWS V14.00,2013-01-15 00:49:00,
2013-01-14 19:54:00,57.3,57.3,30.10,West,270,0.0,1.3,100,0.06,,---,0.63,VWS V14.00,2013-01-15 00:54:00,
2013-01-14 19:59:00,56.6,56.6,30.10,WNW,292,1.3,2.2,100,0.06,,---,0.63,VWS V14.00,2013-01-15 00:59:00,
2013-01-14 20:04:00,55.7,55.4,30.10,NW,315,1.7,2.2,99,0.02,,---,0.63,VWS V14.00,2013-01-15 01:04:00,
2013-01-14 20:09:00,54.3,54.0,30.10,WNW,292,0.0,2.2,99,0.02,,---,0.63,VWS V14.00,2013-01-15 01:09:00,
2013-01-14 20:14:00,53.9,53.6,30.10,West,270,1.5,4.0,99,0.00,,---,0.63,VWS V14.00,2013-01-15 01:14:00,
2013-01-14 20:19:00,53.4,53.1,30.10,North,0,0.0,4.0,99,0.00,,---,0.63,VWS V14.00,2013-01-15 01:19:00,
2013-01-14 20:24:00,52.7,52.4,30.10,WSW,248,4.2,4.2,99,0.00,,---,0.63,VWS V14.00,2013-01-15 01:24:00,
2013-01-14 20:29:00,52.3,52.0,30.10,West,270,0.0,4.2,99,0.00,,---,0.63,VWS V14.00,2013-01-15 01:29:00,
2013-01-14 20:34:00,52.1,51.8,30.10,West,270,6.0,6.0,99,0.00,,---,0.63,VWS V14.00,2013-01-15 01:34:00,
2013-01-14 20:40:00,51.8,51.5,30.10,West,270,4.4,6.0,99,0.00,,---,0.63,VWS V14.00,2013-01-15 01:40:00,
2013-01-14 20:44:00,51.6,51.3,30.10,WSW,248,0.0,4.4,99,0.00,,---,0.63,VWS V14.00,2013-01-15 01:44:00,
2013-01-14 20:50:00,51.6,51.3,30.10,WNW,292,0.0,4.4,99,0.00,,---,0.63,VWS V14.00,2013-01-15 01:50:00,
2013-01-14 20:55:00,51.4,51.1,30.11,WNW,292,4.2,4.2,99,0.00,,---,0.63,VWS V14.00,2013-01-15 01:55:00,
2013-01-14 21:00:00,51.0,50.7,30.10,NW,315,1.5,4.2,99,0.00,,---,0.63,VWS V14.00,2013-01-15 02:00:00,
2013-01-14 21:05:00,50.7,50.4,30.10,NW,315,2.0,2.0,99,0.00,,---,0.63,VWS V14.00,2013-01-15 02:05:00,
2013-01-14 21:10:00,50.5,50.2,30.11,NW,315,2.4,3.3,99,0.00,,---,0.63,VWS V14.00,2013-01-15 02:10:00,
2013-01-14 21:15:00,50.1,49.8,30.12,West,270,3.5,3.5,99,0.00,,---,0.63,VWS V14.00,2013-01-15 02:15:00,
2013-01-14 21:20:00,49.8,49.5,30.12,West,270,2.6,4.0,99,0.00,,---,0.63,VWS V14.00,2013-01-15 02:20:00,
2013-01-14 21:25:00,49.4,49.1,30.13,WSW,248,2.9,4.2,99,0.02,,---,0.65,VWS V14.00,2013-01-15 02:25:00,
2013-01-14 21:30:00,49.1,48.8,30.13,West,270,0.6,4.2,99,0.04,,---,0.67,VWS V14.00,2013-01-15 02:30:00,
2013-01-14 21:35:00,48.9,48.6,30.13,West,270,0.4,0.6,99,0.06,,---,0.69,VWS V14.00,2013-01-15 02:35:00,
2013-01-14 21:40:00,48.5,48.2,30.13,West,270,5.5,5.5,99,0.08,,---,0.72,VWS V14.00,2013-01-15 02:40:00,
2013-01-14 21:45:00,48.3,48.0,30.13,NW,315,0.6,6.2,99,0.10,,---,0.74,VWS V14.00,2013-01-15 02:45:00,
2013-01-14 21:50:00,48.0,48.0,30.12,NW,315,3.3,6.2,100,0.12,,---,0.76,VWS V14.00,2013-01-15 02:50:00,
2013-01-14 21:55:00,47.8,47.8,30.13,NW,315,2.9,3.3,100,0.12,,---,0.76,VWS V14.00,2013-01-15 02:55:00,
2013-01-14 22:00:00,47.4,47.1,30.13,NE,45,3.1,4.2,99,0.14,,---,0.78,VWS V14.00,2013-01-15 03:00:00,
2013-01-14 22:05:00,47.3,47.0,30.14,West,270,4.9,5.3,99,0.14,,---,0.78,VWS V14.00,2013-01-15 03:05:00,
2013-01-14 22:10:00,47.1,47.1,30.14,West,270,2.9,2.9,100,0.14,,---,0.78,VWS V14.00,2013-01-15 03:10:00,
2013-01-14 22:15:00,46.9,46.9,30.14,West,270,0.0,5.3,100,0.16,,---,0.80,VWS V14.00,2013-01-15 03:15:00,
2013-01-14 22:20:00,46.7,46.7,30.13,West,270,3.8,3.8,100,0.16,,---,0.80,VWS V14.00,2013-01-15 03:20:00,
2013-01-14 22:25:00,46.7,46.7,30.13,West,270,2.2,3.8,100,0.16,,---,0.80,VWS V14.00,2013-01-15 03:25:00,
2013-01-14 22:30:00,46.5,46.5,30.13,WNW,292,1.5,1.5,100,0.12,,---,0.80,VWS V14.00,2013-01-15 03:30:00,
2013-01-14 22:35:00,46.5,46.5,30.13,West,270,1.5,2.2,100,0.12,,---,0.80,VWS V14.00,2013-01-15 03:35:00,
2013-01-14 22:40:00,46.5,46.5,30.13,West,270,3.3,3.3,100,0.08,,---,0.80,VWS V14.00,2013-01-15 03:40:00,
2013-01-14 22:45:00,46.5,46.5,30.13,WNW,292,3.3,3.3,100,0.08,,---,0.80,VWS V14.00,2013-01-15 03:45:00,
2013-01-14 22:50:00,46.5,46.5,30.13,West,270,0.0,0.0,100,0.04,,---,0.80,VWS V14.00,2013-01-15 03:50:00,
2013-01-14 22:55:00,46.5,46.5,30.13,WNW,292,0.8,0.8,100,0.04,,---,0.80,VWS V14.00,2013-01-15 03:55:00,
2013-01-14 23:00:00,46.5,46.5,30.13,WNW,292,0.0,0.0,100,0.02,,---,0.80,VWS V14.00,2013-01-15 04:00:00,
2013-01-14 23:05:00,46.5,46.5,30.13,West,270,0.0,0.0,100,0.02,,---,0.80,VWS V14.00,2013-01-15 04:05:00,
2013-01-14 23:10:00,46.5,46.5,30.13,West,270,0.0,0.0,100,0.02,,---,0.80,VWS V14.00,2013-01-15 04:10:00,
2013-01-14 23:15:00,46.5,46.5,30.12,West,270,0.0,0.0,100,0.02,,---,0.80,VWS V14.00,2013-01-15 04:15:00,
2013-01-14 23:20:00,46.5,46.5,30.12,West,270,0.0,0.0,100,0.00,,---,0.80,VWS V14.00,2013-01-15 04:20:00,
2013-01-14 23:25:00,46.2,46.2,30.12,West,270,0.0,0.0,100,0.00,,---,0.80,VWS V14.00,2013-01-15 04:25:00,
2013-01-14 23:31:00,46.2,46.2,30.12,West,270,0.0,0.0,100,0.00,,---,0.80,VWS V14.00,2013-01-15 04:31:00,
2013-01-14 23:36:00,46.2,46.2,30.12,West,270,0.0,0.0,100,0.00,,---,0.80,VWS V14.00,2013-01-15 04:36:00,
2013-01-14 23:41:00,46.2,46.2,30.12,West,270,0.0,0.0,100,0.00,,---,0.80,VWS V14.00,2013-01-15 04:41:00,
2013-01-14 23:46:00,46.2,46.2,30.12,West,270,0.0,0.0,100,0.00,,---,0.80,VWS V14.00,2013-01-15 04:46:00,
2013-01-14 23:51:00,46.4,46.4,30.12,West,270,0.0,0.0,100,0.00,,---,0.80,VWS V14.00,2013-01-15 04:51:00,
2013-01-14 23:56:00,46.5,46.5,30.11,West,270,0.0,0.0,100,0.00,,---,0.80,VWS V14.00,2013-01-15 04:56:00,